Regional Weather Roundup
Issued by NWS

Home | Current Version | Previous Version | Text Only | Print | Product List | Glossary Off
Versions: 1 2 3 4 5 6 7 8 9 10 11 12 13 14 15 16 17 18 19 20 21 22 23 24 25 26 27 28 29 30 31 32 33 34 35 36 37 38 39 40 41 42 43 44 45 46 47 48 49 50

440
ASUS43 KMKX 202320
RWRWI

WISCONSIN REGIONAL WEATHER ROUNDUP
NATIONAL WEATHER SERVICE MILWAUKEE/SULLIVAN WI
500 PM CST TUE FEB 20 2018

NOTE: "FAIR" INDICATES FEW OR NO CLOUDS BELOW 12,000 FEET WITH NO
SIGNIFICANT WEATHER AND/OR OBSTRUCTIONS TO VISIBILITY.

WIZ001-002-006>008-014>016-023>028-210000-
NORTHWEST WISCONSIN

CITY           SKY/WX    TMP DP  RH WIND       PRES   REMARKS
SUPERIOR ARPT  CLOUDY    19  10  67 W13       30.05R WCI   6
ASHLAND        CLOUDY    16  12  84 W13       30.02R WCI   2
HAYWARD        CLOUDY    18  12  77 VRB5      29.99R WCI  11
SIREN          FAIR      19   9  65 NW9       30.05R WCI   8
CUMBERLAND     CLOUDY    18  10  73 W10       30.02R WCI   6
RICE LAKE      CLOUDY    19  14  82 W7        30.05R WCI   9
CHETEK         CLOUDY    19  14  82 W8        30.03R WCI   8
LADYSMITH      CLOUDY    22  18  83 W14       30.00R WCI   9
EAU CLAIRE     CLOUDY    21  15  78 W10       30.04R WCI  10
MENOMONIE      FLURRIES  21  14  76 W15G21    30.07R WCI   7
NEW RICHMOND   CLOUDY    19  10  69 W8        30.08R WCI   9
OSCEOLA        CLOUDY    19   9  64 W8G17     30.11R WCI   9
$$

WIZ003>005-009-010-017-018-210000-
NORTH CENTRAL WISCONSIN

CITY           SKY/WX    TMP DP  RH WIND       PRES   REMARKS
MANITOWISH WTR CLOUDY    20  20 100 NW7       29.90R WCI  11
ARBOR VITAE    CLOUDY    23  22  93 NW9       29.88R WCI  13
WOODRUFF       CLOUDY    23  22  93 NW9       29.88R WCI  13
RHINELANDER    CLOUDY    24  22  91 W15       29.88R WCI  11
EAGLE RIVER    CLOUDY    23  22  96 NW10G17   29.88R WCI  13
LAND O LAKES   CLOUDY    23  20  90 W7        29.89R WCI  14
PHILLIPS       CLOUDY    21  19  92 NW7       29.94R WCI  12
TOMAHAWK       CLOUDY    23  20  89 W7        29.91R WCI  15
MEDFORD        CLOUDY    22  19  88 W12       29.93R WCI  10
MERRILL        CLOUDY    24  22  92 W12G17    29.93R WCI  13
$$

WIZ029-030-035-036-043>047-210000-
CENTRAL WISCONSIN

CITY           SKY/WX    TMP DP  RH WIND       PRES   REMARKS
WAUSAU         CLOUDY    24  21  88 W16       29.92R WCI  11
MOSINEE        CLOUDY    25  21  86 W10G18    29.93R WCI  15
MARSHFIELD     CLOUDY    23  19  85 W15       29.94R WCI  10
STEVENS POINT  CLOUDY    24  22  94 W13G18    29.95R WCI  12
WAUPACA        CLOUDY    32  29  86 W17G24    29.93R WCI  21
WAUTOMA        CLOUDY    29  26  89 W21G26    29.96  WCI  16
WISC RAPIDS    CLOUDY    25  20  81 NW14      29.97R WCI  13
CAMP DOUGLAS   CLOUDY    27  25  93 W10       30.00R WCI  17
$$

WIZ011>013-019>022-031-037>040-048>050-210000-
NORTHEAST WISCONSIN

CITY           SKY/WX    TMP DP  RH WIND       PRES   REMARKS
ANTIGO         CLOUDY    26  24  94 W14       29.87R WCI  14
SHAWANO        CLOUDY    33  29  86 W10G18    29.90R WCI  24
OCONTO         CLOUDY    33  32  96 W7        29.87R WCI  27
STURGEON BAY   CLOUDY    34  32  92 W9        29.87R WCI  27
GREEN BAY      CLOUDY    35  30  82 W13       29.89R WCI  26
MANITOWOC      CLOUDY    35  33  92 W10       29.90R WCI  27
APPLETON       CLOUDY    34  30  86 W17G23    29.88R WCI  23
CLINTONVILLE   CLOUDY    31  27  83 W15G23    29.92R WCI  21
OSHKOSH        CLOUDY    34  31  88 W12G22    29.90R WCI  25
$$

WIZ032>034-041-042-053>061-210000-
SOUTHWEST WISCONSIN

CITY           SKY/WX    TMP DP  RH WIND       PRES   REMARKS
LA CROSSE      CLOUDY    26  20  77 W15       30.06R WCI  14
SPARTA         CLOUDY    24  22  91 W6        30.05R WCI  17
VIROQUA        CLOUDY    24  24  99 W9        30.02R WCI  15
BOSCOBEL       CLOUDY    30  22  72 W14       30.06R WCI  19
PRAIRIE DU CHI CLOUDY    28  20  73 W15G22    30.08R WCI  16
PLATTEVILLE    CLOUDY    29  27  90 W18G24    30.04R WCI  17
$$

WIZ056-057-062-063-064-067-068-210000-
SOUTH CENTRAL WISCONSIN

CITY           SKY/WX    TMP DP  RH WIND       PRES   REMARKS
REEDSBURG      CLOUDY    28  25  88 NW14G20   30.02R WCI  17
BARABOO/DELLS  CLOUDY    29  27  89 W17       29.98R WCI  18
LONE ROCK      CLOUDY    30  25  81 W20G26    30.03R WCI  17
MINERAL POINT  CLOUDY    32  32 100 W15G22    30.01R WCI  22
MADISON        CLOUDY    34  30  85 VRB7      29.98R WCI  28
MIDDLETON      CLOUDY    34  32  91 W12       29.99R WCI  25
WATERTOWN      CLOUDY    35  35 100 W7        29.95R WCI  29
MONROE         CLOUDY    32  30  93 W18       30.00R WCI  20
JANESVILLE     CLOUDY    36  36 100 W8        29.99R WCI  29
$$

WIZ051-052-058>065-066-070>072-210000-
SOUTHEAST WISCONSIN

CITY           SKY/WX    TMP DP  RH WIND       PRES   REMARKS
MILWAUKEE      LGT RAIN  41  38  89 W9        29.94R
WAUKESHA       CLOUDY    36  34  93 W14       29.95R WCI  27
MILWAUKEE/TIMM CLOUDY    37  34  87 W10G17    29.93R WCI  30
RACINE         LGT RAIN  41  39  93 W10G20    29.97R
BURLINGTON     CLOUDY    37  34  90 W10G16    29.99R WCI  29
KENOSHA        LGT RAIN  41  37  86 W14       29.97R
FOND DU LAC    CLOUDY    35  31  85 W8        29.92R WCI  29
SHEBOYGAN      MOCLDY    35  34  96 W9        29.93R WCI  28
WEST BEND      CLOUDY    36  36 100 W10       29.92R WCI  28
JUNEAU         CLOUDY    33  33  98 W8        29.95R WCI  27
$$

LSZ147-162-210000-
LAKE SUPERIOR

STATION/POSITION TIME  TEMP    WIND        PRES    WAVE
                       AIR SEA DIR/SP/G            HT/PER
                 (UTC) (F)     (DEG/KT/KT) (MB)    (FT/S)
DEVILS ISLAND    2200   18     260/ 10/ 12 1015.5R
SAXON HARBOR     2240   20     280/  5/  8 1014.9R
$$

LMZ867-665-643>646-210000-
LAKE MICHIGAN

STATION/POSITION TIME  TEMP    WIND        PRES    WAVE
                       AIR SEA DIR/SP/G            HT/PER
                 (UTC) (F)     (DEG/KT/KT) (MB)    (FT/S)
NORTHPORT PIER   2240   32                 1010.8R
KEWAUNEE LAKESHO 2300   36     280/  5/ 10 1011.0
SHEBOYGAN LAKESH 2200   37     290/ 10/ 12 1011.5R
PORT WASHINGTON  2240   38     290/  7/ 14 1013.9R
MILWAUKEE LAKESH 2300   40     270/  9/ 11   N/A
KENOSHA   LAKESH 2200   46     280/  3/  6 1011.9
$$

TC  - TEMPERATURE IN CELSIUS
VSB - VISIBILITY IN STATUTE MILES
WCI - WIND CHILL INDEX
HX  - HEAT INDEX





USA.gov is the U.S. government's official web portal to all federal, state and local government web resources and services.